Regional Weather Roundup
Issued by NWS

Home | Current Version | Previous Version | Graphics & Text | Print | Product List | Glossary On
Versions: 1 2 3 4 5 6 7 8 9 10 11 12 13 14 15 16 17 18 19 20 21 22 23 24 25 26 27 28 29 30 31 32 33 34 35 36 37 38 39 40 41 42 43 44 45 46 47 48 49 50
000
ASUS45 KTFX 031404
RWRMT
MONTANA HOURLY WEATHER ROUNDUP
NATIONAL WEATHER SERVICE GREAT FALLS MT
704 AM MST TUE MAR 3 2015

NOTE: "FAIR" INDICATES FEW OR NO CLOUDS BELOW 12000 FEET WITH NO
SIGNIFICANT WEATHER AND/OR OBSTRUCTIONS TO VISIBILITY.

* THESE STATIONS ARE NOT UNDER NWS QUALITY CONTROL. THEY DO NOT
   REPORT WEATHER SUCH AS PRECIPITATION OR FOG.

MTZ001>007-043-031500-
WEST OF THE DIVIDE
CITY           SKY/WX    TMP DP  RH WIND       PRES   REMARKS
KALISPELL      FAIR       9   0  66 N7        30.16S WCI  -2
MISSOULA       MOCLDY    16   0  49 SE10      30.16R WCI   4
BUTTE          CLOUDY     3  -4  72 NW8       29.98S WCI -10
MULLAN PASS    CLOUDY     7   3  83 SE3       29.92R
* ANACONDA     CLEAR      3  -6  66 NW8        N/A   WCI -10
* ESSEX        N/A        2  -6  69 S5         N/A   WCI  -8
* LINCOLN      N/A        3  -6  66 NE7G15     N/A   WCI  -9
* LOOKOUT PASS N/A       11   7  84 N/A        N/A
* POLSON       N/A       15   1  54 N1         N/A
* SEELEY LAKE  N/A        1  -6  72 VRB2       N/A
* THOMP F APT  CLEAR      9  -4  55 NW12G27    N/A   WCI  -6
* YAAK HILL    N/A       16   5  62 W1         N/A
$$

MTZ008-052>055-031500-
SOUTHWEST MONTANA
CITY           SKY/WX    TMP DP  RH WIND       PRES   REMARKS
BOZEMAN        HAZE       9   1  70 SW15      30.05S WCI  -8
DILLON         CLOUDY     7   0  73 NE12      29.96S WCI  -9
* W YELLOWSTON CLOUDY     6  -5  60 VRB7G16    N/A   WCI  -6
* THREE FORKS  PTCLDY    10  -2  58 N14        N/A   WCI  -6
* BOULDER HILL N/A       -1  -6  79 N12G17     N/A   WCI -19
* MONIDA PASS  N/A        4  -3  72 NW14G19    N/A   WCI -14
* RAYNOLDS PAS N/A        1  -1  91 N20G29     N/A   WCI -21
* WHITEHALL    N/A       10  -1  61 NE11G20    N/A   WCI  -4
* WISE RIVER   N/A        4  -8  57 E12        N/A   WCI -12
$$

MTZ009>010-012-014-046-048-049-054-031500-
EAST SLOPES AND CENTRAL MONTANA
CITY           SKY/WX    TMP DP  RH WIND       PRES   REMARKS
CUT BANK       CLEAR     -4  -8  83 NW7       30.16F WCI -18
GREAT FALLS    CLEAR     -6  -8  91 SW7       30.19S WCI -20
HELENA         CLEAR      7   0  73 W7        30.16R WCI  -5
* DEARBORN     N/A        4   0  83 SW1        N/A
* EAST GLACIER N/A       -6 -10  82 NW4        N/A
* MONARCH      N/A      -10 -15  78 S2         N/A
* PENDROY      N/A       -7  -9  91 W2         N/A
* ROGERS PASS  N/A       -5 -10  79 NW1        N/A
* SWEET GRASS  N/A       -4 -11  71 W9         N/A   WCI -20
$$

MTZ011-013-016-021-035-040-045-047-050-051-031500-
NORTH CENTRAL MONTANA
CITY           SKY/WX    TMP DP  RH WIND       PRES   REMARKS
HAVRE          MOCLDY     0  -6  75 W7        30.26R WCI -13
LEWISTOWN      CLEAR      0  -8  68 W15       30.10F WCI -19
* N BAR RANCH  MOCLDY     1  -9  62 NW17G24   30.05S WCI -19
* CHESTER      N/A        0  -7  72 NW2        N/A
* DENTON       N/A        4  -4  69 W12        N/A   WCI -12
* GEYSER       N/A        1  -5  75 W13        N/A   WCI -17
* JUDITH GAP   N/A        0  -3  87 N21G26     N/A   WCI -22
* LOMA         N/A        4  -3  72 W5         N/A   WCI  -6
$$

MTZ017>020-022>027-061-062-031500-
NORTHEAST MONTANA
CITY           SKY/WX    TMP DP  RH WIND       PRES   REMARKS
GLASGOW        FAIR       3  -2  79 W14       30.15F WCI -15
GLENDIVE       PTCLDY     5  -2  72 W20       30.10S WCI -15
JORDAN         PTCLDY     7   0  73 NW13      30.16S WCI  -9
SIDNEY         MOCLDY     7   1  76 W16       30.15R WCI -11
WOLF POINT     CLEAR      5  -4  66 W12       30.18S WCI -11
* BEAVER HILL  N/A        4  -4  69 W22        N/A   WCI -18
* CIRCLE       N/A        6  -1  73 NW5G13     N/A   WCI  -3
* LINDSAY DVD  N/A        2  -6  69 NW29G34    N/A   WCI -23
* NAVAJO       N/A       -2  -9  72 NW22G27    N/A   WCI -26
* SACO         N/A        4  -4  69 W9G17      N/A   WCI -10
$$

MTZ028>042-056>058-031500-
SOUTHCENTRAL AND SOUTHEAST MONTANA
CITY           SKY/WX    TMP DP  RH WIND       PRES   REMARKS
BAKER          PTCLDY     5  -4  66 NW18G32   30.05R WCI -15
BILLINGS       LGT SNOW   9   5  84 N6        30.13R VSB 3    WCI  -1
LIVINGSTON     LGT SNOW   7  -2  66 NW12      30.05S WCI  -9
MILES CITY     CLOUDY     9   0  66 NW17      30.15R WCI  -9
* LAUREL APT   CLOUDY    10   1  67 N/A        N/A
* ROUNDUP APT  PTCLDY     9  -8  45 N9         N/A   WCI  -4
* ALZADA       N/A        9   4  80 NW13       N/A   WCI  -7
* HYSHAM       N/A        7  -1  69 VRB4       N/A
* REED POINT   N/A       10  -1  61 SW7        N/A   WCI  -1
* ROSCOE HILL  N/A        3  -2  79 VRB4       N/A
$$

REGIONAL REPORTS...DAKOTAS
CITY           SKY/WX    TMP DP  RH WIND       PRES   REMARKS
WILLISTON      CLOUDY     3  -4  72 NW13      30.10R WCI -14
DICKINSON      PTCLDY     3  -6  66 NW22G29   29.98R WCI -19
BEACH          LGT SNOW   5   0  80 NW21G26   30.05S WCI -16
CROSBY         HAZE       0  -4  83 NW20G25   30.05S WCI -22
WATFORD CITY   LGT SNOW   5   0  80 NW15G21   30.05S WCI -13
BISMARCK       FAIR       7  -2  66 NW16G28   30.00R WCI -11
GRAND FORKS    LGT SNOW  12   3  67 NW23G31   29.82R WCI  -7
FARGO          CLOUDY    16   9  74 NW21G30   29.80R WCI  -1
BUFFALO SD     CLOUDY    10   0  64 NW25      29.92R WCI -11
RAPID CITY     CLOUDY    12   7  80 NW32G40   29.96S WCI -10
$$

REGIONAL REPORTS...WYOMING/IDAHO/WASHINGTON
CITY           SKY/WX    TMP DP  RH WIND       PRES   REMARKS
GILLETTE       LGT SNOW   7   1  76 NW7       29.97S WCI  -5
SHERIDAN       LGT SNOW  12   9  88 W13       30.04S VSB 1 1/2 WCI  -3
CODY           CLOUDY     7   3  83 NW13      29.98R VSB 1 1/4 WCI  -9
YELLOWSTONE LA MOCLDY     3  -6  66 VRB6      29.74R WCI  -8
SALMON         CLOUDY    19   1  45 N10       29.98S WCI   8
MULLAN PASS    CLOUDY     7   3  83 SE3       29.92S
SAND POINT     CLEAR     21  10  62 N8        30.19R WCI  11
SPOKANE        FAIR      19  12  74 CALM      30.15R
$$

REGIONAL REPORTS...SASKATCHEWAN
CITY           SKY/WX    TMP DP  RH WIND       PRES   REMARKS
SWIFT CURRENT  PTCLDY    -4  -9  79 NW20      30.08S WCI -27

$$



USA.gov is the U.S. government's official web portal to all federal, state and local government web resources and services.